Location: Islay
(41.3172°N, 105.1346°W)
Time: 19:10:31
(UTC+00:00)

ACS3 Solar Sail - Pass Details

Date: 27 April 2026
Orbit: 894 x 947 km, 97.2° (Epoch: 12 May)

Event Time Altitude Azimuth Distance (km) Brightness Sun altitude
Rises 07:11:45 0° 21° (NNE) 3,566 5.7 -34.7°
Reaches altitude 10° 07:14:27 10° 31° (NNE) 2,628 4.7 -34.7°
Enters shadow 07:18:20 29° 69° (ENE) 1,636 3.1 -34.6°
